• In Portugal
  • List of Countries
  • For 7 days
  • Water Temperature
  • Satellite Maps
  • Weather Map
  • Weather Widgets
  • user-avatar
    Login

    Hourly Weather Sharan

    Today, 18 September, Tuesday

    Time Temperature Precipitation Wind Pressure Humidity
    00:00 +19°C° 0 mm 1 mps 587 mmHg 25%
    01:00 +18°C° 0 mm 1 mps 587 mmHg 26%
    02:00 +18°C° 0 mm 1 mps 587 mmHg 27%
    03:00 +16°C° 0 mm 1 mps 586 mmHg 26%
    04:00 +16°C° 0 mm 1 mps 586 mmHg 26%
    05:00 +15°C° 0 mm 1 mps 586 mmHg 28%
    06:00 +16°C° 0 mm 1 mps 587 mmHg 24%
    07:00 +18°C° 0 mm 1 mps 587 mmHg 21%
    08:00 +20°C° 0 mm 1 mps 588 mmHg 17%
    09:00 +21°C° 0 mm 1 mps 589 mmHg 14%
    10:00 +23°C° 0 mm 1 mps 589 mmHg 12%
    11:00 +24°C° 0 mm 1 mps 590 mmHg 10%
    12:00 +25°C° 0 mm 1 mps 590 mmHg 9%
    13:00 +26°C° 0 mm 1 mps 590 mmHg 8%
    14:00 +27°C° 0 mm 1 mps 590 mmHg 7%
    15:00 +27°C° 0 mm 1 mps 590 mmHg 7%
    16:00 +27°C° 0 mm 2 mps 590 mmHg 7%
    17:00 +27°C° 0 mm 2 mps 589 mmHg 7%
    18:00 +26°C° 0 mm 2 mps 589 mmHg 9%
    19:00 +24°C° 0 mm 2 mps 589 mmHg 12%
    20:00 +23°C° 0 mm 2 mps 589 mmHg 15%
    21:00 +21°C° 0 mm 2 mps 588 mmHg 18%
    22:00 +21°C° 0 mm 1 mps 588 mmHg 20%
    23:00 +20°C° 0 mm 1 mps 588 mmHg 23%

    Tomorrow, 19 September, Wednesday

    Time Temperature Precipitation Wind Pressure Humidity
    00:00 +20°C° 0 mm 1 mps 588 mmHg 25%
    01:00 +19°C° 0 mm 1 mps 588 mmHg 27%
    02:00 +18°C° 0 mm 1 mps 587 mmHg 29%
    03:00 +18°C° 0 mm 1 mps 587 mmHg 29%
    04:00 +16°C° 0 mm 1 mps 587 mmHg 29%
    05:00 +15°C° 0 mm 1 mps 587 mmHg 29%
    06:00 +16°C° 0 mm 1 mps 588 mmHg 26%
    07:00 +19°C° 0 mm 1 mps 588 mmHg 22%
    08:00 +20°C° 0 mm 1 mps 589 mmHg 19%
    09:00 +21°C° 0 mm 1 mps 590 mmHg 15%
    10:00 +23°C° 0 mm 1 mps 590 mmHg 11%
    11:00 +24°C° 0 mm 2 mps 591 mmHg 7%
    12:00 +25°C° 0 mm 1 mps 591 mmHg 7%
    13:00 +26°C° 0 mm 1 mps 590 mmHg 6%
    14:00 +27°C° 0 mm 1 mps 590 mmHg 6%
    15:00 +27°C° 0 mm 1 mps 590 mmHg 6%
    16:00 +27°C° 0 mm 2 mps 590 mmHg 6%
    17:00 +27°C° 0 mm 2 mps 590 mmHg 6%
    18:00 +26°C° 0 mm 2 mps 589 mmHg 8%
    19:00 +24°C° 0 mm 2 mps 589 mmHg 10%
    20:00 +23°C° 0 mm 1 mps 589 mmHg 12%
    21:00 +22°C° 0 mm 1 mps 589 mmHg 15%
    22:00 +21°C° 0 mm 1 mps 588 mmHg 18%
    23:00 +20°C° 0 mm 1 mps 588 mmHg 20%

    Day after tomorrow, 20 September, Thursday

    Time Temperature Precipitation Wind Pressure Humidity
    00:00 +19°C° 0 mm 1 mps 588 mmHg 21%
    01:00 +19°C° 0 mm 1 mps 588 mmHg 23%
    02:00 +18°C° 0 mm 1 mps 587 mmHg 24%
    03:00 +18°C° 0 mm 1 mps 587 mmHg 24%
    04:00 +16°C° 0 mm 1 mps 587 mmHg 23%
    05:00 +15°C° 0 mm 1 mps 587 mmHg 23%
    06:00 +16°C° 0 mm 1 mps 587 mmHg 21%
    07:00 +18°C° 0 mm 2 mps 588 mmHg 18%
    08:00 +19°C° 0 mm 2 mps 589 mmHg 16%
    09:00 +21°C° 0 mm 1 mps 590 mmHg 14%
    10:00 +23°C° 0 mm 1 mps 590 mmHg 11%
    11:00 +24°C° 0 mm 1 mps 591 mmHg 9%
    12:00 +25°C° 0 mm 1 mps 591 mmHg 8%
    13:00 +26°C° 0 mm 1 mps 591 mmHg 8%
    14:00 +27°C° 0 mm 2 mps 591 mmHg 7%
    15:00 +27°C° 0 mm 2 mps 591 mmHg 7%
    16:00 +27°C° 0 mm 2 mps 590 mmHg 7%
    17:00 +27°C° 0 mm 3 mps 590 mmHg 7%
    18:00 +26°C° 0 mm 2 mps 590 mmHg 9%
    19:00 +24°C° 0 mm 2 mps 590 mmHg 12%
    20:00 +23°C° 0 mm 2 mps 589 mmHg 14%
    21:00 +21°C° 0 mm 2 mps 589 mmHg 18%
    22:00 +20°C° 0 mm 2 mps 589 mmHg 21%
    23:00 +19°C° 0 mm 2 mps 589 mmHg 25%

    21 September, Friday

    Time Temperature Precipitation Wind Pressure Humidity
    00:00 +19°C° 0 mm 2 mps 589 mmHg 28%
    01:00 +18°C° 0 mm 2 mps 588 mmHg 31%
    02:00 +17°C° 0 mm 2 mps 588 mmHg 34%
    03:00 +17°C° 0 mm 2 mps 588 mmHg 35%
    04:00 +16°C° 0 mm 1 mps 587 mmHg 37%
    05:00 +16°C° 0 mm 1 mps 587 mmHg 39%
    06:00 +18°C° 0 mm 1 mps 588 mmHg 36%
    07:00 +18°C° 0 mm 2 mps 589 mmHg 34%
    08:00 +19°C° 0 mm 2 mps 590 mmHg 32%
    09:00 +20°C° 0 mm 2 mps 590 mmHg 28%
    10:00 +21°C° 0 mm 2 mps 591 mmHg 23%
    11:00 +24°C° 0 mm 2 mps 591 mmHg 19%
    12:00 +25°C° 0 mm 3 mps 591 mmHg 17%
    13:00 +26°C° 0 mm 3 mps 591 mmHg 15%
    14:00 +27°C° 0 mm 4 mps 591 mmHg 13%
    15:00 +27°C° 0 mm 4 mps 591 mmHg 12%
    16:00 +27°C° 0 mm 5 mps 591 mmHg 11%
    17:00 +27°C° 0 mm 5 mps 591 mmHg 10%
    18:00 +25°C° 0 mm 4 mps 590 mmHg 13%
    19:00 +24°C° 0 mm 3 mps 590 mmHg 16%
    20:00 +22°C° 0 mm 3 mps 590 mmHg 18%
    21:00 +21°C° 0 mm 3 mps 590 mmHg 23%
    22:00 +20°C° 0 mm 2 mps 590 mmHg 27%
    23:00 +19°C° 0 mm 2 mps 590 mmHg 32%

    22 September, Saturday

    Time Temperature Precipitation Wind Pressure Humidity
    00:00 +18°C° 0 mm 2 mps 589 mmHg 36%
    01:00 +18°C° 0 mm 2 mps 589 mmHg 40%
    02:00 +17°C° 0 mm 2 mps 589 mmHg 44%
    03:00 +17°C° 0 mm 2 mps 589 mmHg 46%
    04:00 +16°C° 0 mm 2 mps 588 mmHg 49%
    05:00 +16°C° 0 mm 1 mps 588 mmHg 51%
    06:00 +16°C° 0 mm 1 mps 589 mmHg 48%
    07:00 +18°C° 0 mm 1 mps 590 mmHg 46%
    08:00 +19°C° 0 mm 1 mps 590 mmHg 43%
    09:00 +19°C° 0 mm 2 mps 591 mmHg 37%
    10:00 +21°C° 0 mm 2 mps 591 mmHg 31%
    11:00 +22°C° 0 mm 3 mps 592 mmHg 25%
    12:00 +24°C° 0 mm 3 mps 592 mmHg 22%
    13:00 +25°C° 0 mm 4 mps 591 mmHg 19%
    14:00 +26°C° 0 mm 5 mps 591 mmHg 16%
    15:00 +26°C° 0 mm 5 mps 591 mmHg 16%
    16:00 +26°C° 0 mm 5 mps 591 mmHg 15%
    17:00 +26°C° 0 mm 5 mps 590 mmHg 15%
    18:00 +25°C° 0 mm 4 mps 590 mmHg 18%
    19:00 +23°C° 0 mm 4 mps 590 mmHg 20%
    20:00 +21°C° 0 mm 3 mps 590 mmHg 23%
    21:00 +20°C° 0 mm 3 mps 590 mmHg 26%
    22:00 +19°C° 0 mm 3 mps 590 mmHg 29%
    23:00 +19°C° 0 mm 2 mps 589 mmHg 32%

    23 September, Sunday

    Time Temperature Precipitation Wind Pressure Humidity
    00:00 +18°C° 0 mm 2 mps 589 mmHg 36%
    01:00 +17°C° 0 mm 2 mps 589 mmHg 39%
    02:00 +17°C° 0 mm 2 mps 588 mmHg 42%
    03:00 +16°C° 0 mm 1 mps 588 mmHg 45%
    04:00 +15°C° 0 mm 1 mps 588 mmHg 48%
    05:00 +15°C° 0 mm 1 mps 587 mmHg 51%
    06:00 +15°C° 0 mm 1 mps 588 mmHg 47%
    07:00 +16°C° 0 mm 1 mps 589 mmHg 42%
    08:00 +18°C° 0 mm 1 mps 589 mmHg 38%
    09:00 +19°C° 0 mm 1 mps 590 mmHg 32%
    10:00 +20°C° 0 mm 2 mps 590 mmHg 26%
    11:00 +21°C° 0 mm 2 mps 591 mmHg 20%
    12:00 +22°C° 0 mm 3 mps 590 mmHg 17%
    13:00 +24°C° 0 mm 3 mps 590 mmHg 15%
    14:00 +25°C° 0 mm 4 mps 590 mmHg 13%
    15:00 +25°C° 0 mm 4 mps 590 mmHg 12%
    16:00 +25°C° 0 mm 4 mps 590 mmHg 12%
    17:00 +25°C° 0 mm 4 mps 589 mmHg 12%
    18:00 +23°C° 0 mm 4 mps 589 mmHg 15%
    19:00 +21°C° 0 mm 3 mps 589 mmHg 19%
    20:00 +20°C° 0 mm 2 mps 589 mmHg 22%
    21:00 +19°C° 0 mm 2 mps 589 mmHg 27%
    22:00 +19°C° 0 mm 2 mps 589 mmHg 31%
    23:00 +18°C° 0 mm 2 mps 589 mmHg 36%
    Show more